GSAT0203 (GALILEO 7)

Last updated on Sat Jun 21 2025 00:02:32 GMT+0000 (Coordinated Universal Time)

1 40544U 15017A 25170.70412904 -.00000072 00000+0 00000+0 0 9991 2 40544 56.8887 351.4722 0001996 265.8411 94.1542 1.70475933 63022
UTC large
Height (km)
Speed (km/s)
/
Latitude / Longitude
Inclination (degrees)
Orbital Period (minutes)
Azimuth
Elevation
Range (km)
Doppler Factor

Next 0 passes for location: London (51.5072 / 0.1276)

Sorry there are no passes over London.